TimePDT,TemperatureF,Dew PointF,Humidity,Sea Level PressureIn,VisibilityMPH,Wind Direction,Wind SpeedMPH,Gust SpeedMPH,PrecipitationIn,Events,Conditions,WindDirDegrees,DateUTC
12:15 AM,53.6,48.2,82,29.87,7.0,North,13.8,21.9,N/A,,Unknown,350,2013-09-26 07:15:00
12:35 AM,53.6,48.2,82,29.87,6.0,North,13.8,20.7,N/A,,Haze,360,2013-09-26 07:35:00
12:55 AM,53.6,48.2,82,29.87,7.0,NNE,12.7,16.1,N/A,,Unknown,20,2013-09-26 07:55:00
1:15 AM,53.6,48.2,82,29.87,8.0,North,9.2,-,N/A,,Unknown,360,2013-09-26 08:15:00
1:35 AM,53.6,46.4,77,29.87,8.0,North,8.1,-,N/A,,Unknown,10,2013-09-26 08:35:00
1:55 AM,53.6,46.4,77,29.87,8.0,North,10.4,-,N/A,,Unknown,10,2013-09-26 08:55:00
2:15 AM,53.6,46.4,77,29.87,9.0,North,12.7,18.4,N/A,,Unknown,360,2013-09-26 09:15:00
2:35 AM,53.6,46.4,77,29.87,9.0,North,8.1,-,N/A,,Unknown,360,2013-09-26 09:35:00
2:55 AM,53.6,46.4,77,29.87,8.0,North,6.9,-,N/A,,Unknown,360,2013-09-26 09:55:00
3:15 AM,53.6,46.4,77,29.87,9.0,North,6.9,-,N/A,,Unknown,10,2013-09-26 10:15:00
3:35 AM,53.6,46.4,77,29.88,9.0,North,8.1,-,N/A,,Unknown,360,2013-09-26 10:35:00
3:55 AM,53.6,46.4,77,29.87,9.0,North,10.4,-,N/A,,Unknown,350,2013-09-26 10:55:00
4:15 AM,53.6,46.4,77,29.87,8.0,North,8.1,-,N/A,,Unknown,360,2013-09-26 11:15:00
4:35 AM,53.6,46.4,77,29.88,8.0,North,10.4,-,N/A,,Unknown,360,2013-09-26 11:35:00
4:55 AM,53.6,44.6,72,29.88,10.0,North,9.2,-,N/A,,Unknown,360,2013-09-26 11:55:00
5:15 AM,53.6,44.6,72,29.88,10.0,North,8.1,-,N/A,,Unknown,350,2013-09-26 12:15:00
5:35 AM,53.6,42.8,67,29.88,10.0,North,5.8,-,N/A,,Unknown,360,2013-09-26 12:35:00
5:55 AM,50.0,44.6,82,29.88,8.0,North,6.9,-,N/A,,Unknown,350,2013-09-26 12:55:00
6:15 AM,48.2,42.8,82,29.89,8.0,NW,5.8,-,N/A,,Unknown,310,2013-09-26 13:15:00
6:35 AM,50.0,42.8,76,29.90,7.0,NNW,6.9,-,N/A,,Unknown,340,2013-09-26 13:35:00
6:55 AM,50.0,44.6,82,29.91,7.0,North,5.8,-,N/A,,Unknown,360,2013-09-26 13:55:00
7:15 AM,53.6,46.4,77,29.91,8.0,North,5.8,-,N/A,,Unknown,10,2013-09-26 14:15:00
7:35 AM,51.8,46.4,82,29.92,5.0,NNW,5.8,-,N/A,,Haze,340,2013-09-26 14:35:00
7:55 AM,53.6,46.4,77,29.92,6.0,NNW,6.9,-,N/A,,Haze,340,2013-09-26 14:55:00
8:15 AM,55.4,46.4,72,29.93,7.0,North,5.8,-,N/A,,Clear,350,2013-09-26 15:15:00
8:35 AM,55.4,46.4,72,29.94,6.0,NNE,8.1,-,N/A,,Haze,20,2013-09-26 15:35:00
8:55 AM,57.2,44.6,63,29.94,8.0,NNW,9.2,-,N/A,,Clear,340,2013-09-26 15:55:00
9:15 AM,-9999,-9999,N/A,29.94,8.0,NNW,12.7,-,N/A,,Unknown,330,2013-09-26 16:15:00
9:35 AM,57.2,44.6,63,29.95,9.0,NNW,9.2,-,N/A,,Clear,340,2013-09-26 16:35:00
9:55 AM,59.0,44.6,59,29.96,8.0,NNW,9.2,-,N/A,,Clear,340,2013-09-26 16:55:00
10:15 AM,-9999,-9999,N/A,29.95,-9999.0,NNW,10.4,-,N/A,,Unknown,330,2013-09-26 17:15:00
10:35 AM,60.8,46.4,59,29.96,7.0,NW,6.9,-,N/A,,Clear,320,2013-09-26 17:35:00
10:55 AM,64.4,44.6,49,29.95,9.0,NW,9.2,-,N/A,,Unknown,320,2013-09-26 17:55:00
11:15 AM,59.0,48.2,67,29.95,9.0,NNW,12.7,-,N/A,,Clear,330,2013-09-26 18:15:00
11:35 AM,59.0,48.2,67,29.95,9.0,NNW,15.0,-,N/A,,Clear,330,2013-09-26 18:35:00
11:55 AM,59.0,48.2,67,29.95,9.0,NNW,15.0,-,N/A,,Clear,330,2013-09-26 18:55:00
12:15 PM,59.0,48.2,67,29.95,8.0,NNW,12.7,-,N/A,,Clear,340,2013-09-26 19:15:00
12:35 PM,60.8,48.2,63,29.95,9.0,NW,18.4,-,N/A,,Clear,320,2013-09-26 19:35:00
12:55 PM,59.0,48.2,67,29.96,8.0,NNW,19.6,24.2,N/A,,Clear,330,2013-09-26 19:55:00
1:15 PM,60.8,46.4,59,29.96,10.0,NNW,13.8,18.4,N/A,,Clear,340,2013-09-26 20:15:00
1:35 PM,62.6,46.4,55,29.95,9.0,NNW,12.7,18.4,N/A,,Clear,340,2013-09-26 20:35:00
1:55 PM,62.6,44.6,52,29.94,10.0,NNW,17.3,-,N/A,,Clear,330,2013-09-26 20:55:00
2:15 PM,59.0,46.4,63,29.94,9.0,NNW,16.1,-,N/A,,Clear,330,2013-09-26 21:15:00
2:35 PM,60.8,48.2,63,29.94,9.0,NNW,15.0,-,N/A,,Clear,340,2013-09-26 21:35:00
2:55 PM,59.0,48.2,67,29.94,9.0,NNW,17.3,-,N/A,,Clear,330,2013-09-26 21:55:00
3:15 PM,59.0,48.2,67,29.94,8.0,NNW,16.1,-,N/A,,Clear,330,2013-09-26 22:15:00
3:35 PM,59.0,48.2,67,29.94,8.0,NNW,13.8,20.7,N/A,,Clear,340,2013-09-26 22:35:00
3:55 PM,60.8,48.2,63,29.93,9.0,North,15.0,20.7,N/A,,Clear,360,2013-09-26 22:55:00
4:15 PM,60.8,48.2,63,29.94,7.0,NNW,13.8,21.9,N/A,,Clear,340,2013-09-26 23:15:00
4:35 PM,60.8,48.2,63,29.94,7.0,NNW,13.8,20.7,N/A,,Clear,340,2013-09-26 23:35:00
4:55 PM,59.0,48.2,67,29.94,7.0,North,13.8,23.0,N/A,,Clear,350,2013-09-26 23:55:00
5:15 PM,59.0,48.2,67,29.93,6.0,NNW,16.1,23.0,N/A,,Haze,340,2013-09-27 00:15:00
5:35 PM,59.0,48.2,67,29.93,5.0,North,16.1,23.0,N/A,,Haze,350,2013-09-27 00:35:00
5:55 PM,59.0,48.2,67,29.94,5.0,North,12.7,19.6,N/A,,Haze,350,2013-09-27 00:55:00
6:15 PM,57.2,48.2,72,29.94,5.0,NNW,16.1,20.7,N/A,,Haze,340,2013-09-27 01:15:00
6:35 PM,57.2,48.2,72,29.94,5.0,NNW,16.1,23.0,N/A,,Haze,340,2013-09-27 01:35:00
6:55 PM,57.2,48.2,72,29.94,5.0,North,17.3,24.2,N/A,,Haze,350,2013-09-27 01:55:00
7:15 PM,55.4,48.2,77,29.94,5.0,NNW,16.1,21.9,N/A,,Haze,340,2013-09-27 02:15:00
7:35 PM,55.4,48.2,77,29.95,6.0,NNW,13.8,17.3,N/A,,Haze,340,2013-09-27 02:35:00
7:55 PM,55.4,48.2,77,29.95,5.0,North,10.4,-,N/A,,Haze,350,2013-09-27 02:55:00
8:15 PM,55.4,48.2,77,29.97,6.0,Calm,Calm,-,N/A,,Haze,0,2013-09-27 03:15:00
8:35 PM,55.4,48.2,77,29.97,7.0,Calm,Calm,-,N/A,,Unknown,0,2013-09-27 03:35:00
8:55 PM,53.6,46.4,77,29.98,7.0,Calm,Calm,-,N/A,,Unknown,0,2013-09-27 03:55:00
9:15 PM,50.0,44.6,82,29.99,7.0,NE,3.5,-,N/A,,Unknown,40,2013-09-27 04:15:00
9:35 PM,48.2,44.6,87,30.00,7.0,NNE,4.6,-,N/A,,Unknown,30,2013-09-27 04:35:00
9:55 PM,48.2,44.6,87,30.00,8.0,Calm,Calm,-,N/A,,Unknown,0,2013-09-27 04:55:00
10:15 PM,46.4,42.8,87,30.00,7.0,Calm,Calm,-,N/A,,Unknown,0,2013-09-27 05:15:00
10:35 PM,48.2,44.6,87,30.00,8.0,Calm,Calm,-,N/A,,Unknown,0,2013-09-27 05:35:00
10:55 PM,46.4,42.8,87,30.00,8.0,Calm,Calm,-,N/A,,Unknown,0,2013-09-27 05:55:00
11:15 PM,44.6,41.0,87,30.00,7.0,Calm,Calm,-,N/A,,Unknown,0,2013-09-27 06:15:00
11:35 PM,44.6,42.8,93,30.00,7.0,NE,3.5,-,N/A,,Unknown,40,2013-09-27 06:35:00
11:55 PM,44.6,41.0,87,30.00,7.0,Calm,Calm,-,N/A,,Unknown,0,2013-09-27 06:55:00